Starlink 30545

operational
NORAD ID: 58000 Int'l Des: 2023-153 Owner: SPXS Country: US Constellation: starlink
LEOCIRCULAR

About Starlink 30545

Description loading...

Live Position

Loading 3D Globe...

Upcoming Passes

Altitude History

Altitude vs Time

uPlot chart will show altitude changes over time

Two-Line Element Set

1 58000U 23153K 25303.64254872 .00000169 00000-0 27558-4 0 9995
2 58000 43.0036 55.4082 0001130 275.7493 84.3221 15.02542923115311
Epoch: Oct 30, 2025 • Age: 15 hours

Current Status

Altitude 561.9 km
Velocity 7.59 km/s
Sub-Earth Point 38.45°N, 20.9°W
Launch Date Oct 5, 2023
Age 2 years
Type internet

Technical Details

Classification Payload
Mass 730.00 kg
Dry Mass 700.00 kg
Total Mass 730.00 kg
Length 0.30 m
Diameter 4.10 m
Span 29.00 m
Shape Box + pan
Manufacturer SPXS
Bus Type Starlink V2M
Phase Status In Orbit
Owner/State SPXS/US

Large Constellations

Loading constellations...